Regional Weather Roundup
Issued by NWS Charleston, SC

Current Version | Previous Version | Graphics & Text | Print | Product List | Glossary On
Versions: 1 2 3 4 5 6 7 8 9 10 11 12 13 14 15 16 17 18 19 20 21 22 23 24 25 26 27 28 29 30 31 32 33 34 35 36 37 38 39 40 41 42 43 44 45 46 47 48 49 50
000
ASUS42 KCHS 232112
RWRCHS

Regional Weather Roundup
National Weather Service Charleston SC
400 PM EST FRI FEB 23 2018

NOTE: "fair" indicates few or no clouds below 12,000 feet with no
significant weather and/or obstructions to visibility.

Not all stations are quality controlled. Use data with caution,
especially dewpoint observations.

SCZ027-030-031-034>040-042>050-232200-
...Southeast South Carolina...

CITY           SKY/WX    TMP DP  RH WIND       PRES   REMARKS
N Charleston   FAIR      76  63  64 SE20      30.34F
Waterfront Prk   N/A     67  64  90 SE12      30.20F
Mount Pleasant FAIR      72  64  78 SE10G18   30.36S
Johns Island   FAIR      73  66  78 SE12      30.36F
Pinopolis        N/A     73  63  68 VRB3      30.27F
Moncks Corner  MOCLDY    75  57  53 SE6       30.33F
Summerville    FAIR      79  59  50 S8        30.34F
Beaufort MCAS  FAIR      78  64  61 S10       30.34F
Beaufort Arpt  FAIR      75  63  64 SE8       30.34F
Hilton Head Is MOSUNNY   73  64  73 SE7       30.35F
Walterboro     FAIR      79  59  50 S10       30.33F
Allendale      FAIR      81  55  41 CALM      30.30F

...Southern Midlands and Pee Dee...

CITY           SKY/WX    TMP DP  RH WIND       PRES   REMARKS
Georgetown     FAIR      73  70  88 SE13      30.37S
Kingstree      FAIR      79  57  47 S7        30.33F
Orangeburg     FAIR      80  57  45 SW9       30.32F
Barnwell         N/A     81  61  50 CALM      30.32F
Aiken          FAIR      77  54  44 SW5       30.36F
Manning        FAIR      77  50  38 MISG      30.33F
Columbia       FAIR      79  57  46 S8        30.31F
Sumter         FAIR      80  56  42 S10       30.30F
Florence       FAIR      78  58  49 S7        30.33F
Myrtle Beach   FAIR      71  63  75 SE14      30.37F
N Myrtle Beach FAIR      70  63  78 SE10      30.36F

$$

GAZ063-065-086>088-099>101-113>116-118-119-134>141-150-232200-
...Southeast Georgia...

CITY           SKY/WX    TMP DP  RH WIND       PRES   REMARKS
Savannah Arpt  FAIR      80  61  52 S12G18    30.32F
Hunter AAF     FAIR      77  71  81 SE13G20   30.30F
Fort Stewart   FAIR      80  63  54 SE14      30.29F
Statesboro     FAIR      83  49  30 S7        30.31F
Sylvania       FAIR      79  60  52 CALM      30.32F
Claxton        FAIR      83  60  44 E6        30.30F

...CSRA, Central and far Southeast Georgia...

CITY           SKY/WX    TMP DP  RH WIND       PRES   REMARKS
Thomson        FAIR      79  58  48 W6        30.37F
Augusta-Bush   FAIR      79  57  46 S6        30.31F
Augusta-Daniel FAIR      81  54  39 VRB7      30.32F
Swainsboro     FAIR      81  57  44 E6        30.32F
Vidalia        FAIR      81  59  47 CALM      30.30F
Eastman        MOCLDY    84  40  21 SE6       30.32F
Hazlehurst     FAIR      83  46  26 S6        30.29F
Alma           FAIR      83  55  38 SE3       30.29F
Waycross       PTSUNNY   83  52  34 E3        30.29F
Jesup          MOCLDY    82  57  42 E7        30.30F
Baxley         FAIR      81  55  41 S5        30.29F
Brunswick      FAIR      75  63  64 SE10      30.34S
Saint Simons   FAIR      73  65  75 SE12      30.33F

$$

SCZ027-028-034-036>038-045-046-048>050-GAZ119-141-232200-
...Lake and Supplemental Coastal Observations...

STATION/POSITION TIME  TEMP    WIND        PRES    WAVE   SWELL
                       AIR SEA DIR/SP/G            HT/PER HT/PER/DIR
                 (UTC) (F)     (DEG/KT/KT) (MB)    (FT/S) (FT/S/D)
Winyah Bay       1945   69     140/  8     1029.0
Lake Murray      2020   78      CALM  /  1 1026.1F
ACE Basin NERRS  1945   76     170/  3     1028.0
Fort Pulaski     2042   72 62  130/  7/ 10 1027.8F
Sapelo Island    2000   75     110/ 10     1028.0

$$

ANZ835-935-AMZ111-154-330-350-352-354-370-450-454-472-232200-
...C-MAN and Buoy Observations...

STATION/POSITION TIME  TEMP    WIND        PRES    WAVE   SWELL
                       AIR SEA DIR/SP/G            HT/PER HT/PER/DIR
                 (UTC) (F)     (DEG/KT/KT) (MB)    (FT/S) (FT/S/D)
Buoy 41004       2050   70 67   90/ 10/ 12 1028.1F   5/ 9   5/120/ 9
Buoy 41008       2050   66 62  100/  2/  4 1027.2F   3/10   3/110/10
Folly Beach CMAN 2100   65     130/ 11/ 11 1028.6F
Capers Nearshore 2008   66 65  160/  4/  8 1028.2F
Fripp Nearshore  2008   65 62  110/  6/  8 1027.7F


STATION/POSITION TIME  TEMP    WIND        PRES    WAVE   SWELL
                       AIR SEA DIR/SP/G            HT/PER HT/PER/DIR
                 (UTC) (F)     (DEG/KT/KT) (MB)    (FT/S) (FT/S/D)
5E St. Marys GA  2100      66                N/A     3/ 9   2/110/11
Frying Pan Buoy  2050   70 71  280/  8/ 10 1028.8F   4/10   3/140/10
Buoy 41025       2050   65 73  350/  4/  8 1029.5F   4/ 9   3/130/ 9
Cape Lookout NC  2100           80/  4/  5 1029.2F
Buoy 41002       2050   72 73  130/  8/ 10 1029.1F   5/ 9   5/110/ 9
Buoy 41010       NOT AVBL
St Augustine FL  2100   70 69   80/  6/  7 1026.8F


$$




USA.gov is the U.S. government's official web portal to all federal, state and local government web resources and services.